User: anonymous   Login
Location: Góry Miechowskie
(50.3599°N, 20.1803°E)
Time: 23:37:20
(UTC+00:00)
Language:

SL-16 R/B - Orbit

View from above orbital plane
View from above orbital plane
View from above satellite
View from above satellite

Ground track
Ground track

The orbit data is extracted from the following two-line orbital elements,

1 27006U 01056F   25118.71903510 -.00000016  00000-0  34159-4 0  9994
2 27006  99.7307 275.0470 0015308  77.3515 293.3398 13.71073669170033
Epoch (UTC): 28 April 2025 17:15:24
Eccentricity: 0.0015308
inclination: 99.7307°
perigee height: 984 km
apogee height: 1007 km
right ascension of ascending node: 275.0470°
argument of perigee: 77.3515°
revolutions per day: 13.71073669
mean anomaly at epoch: 293.3398°
orbit number at epoch: 17003

The dashed part of the orbit path shows where the satellite is in the earth's shadow,  

DLR